Regional Weather Roundup
Issued by NWS Sterling, VA

Home | Current Version | Previous Version | Text Only | Print | Product List | Glossary Off
Versions: 1 2 3 4 5 6 7 8 9 10 11 12 13 14 15 16 17 18 19 20 21 22 23 24 25 26 27

000
ASUS41 KLWX 232010
RWRLWX

REGIONAL WEATHER ROUNDUP
NATIONAL WEATHER SERVICE BALTIMORE MD/WASHINGTON DC
400 PM EDT THU MAR 23 2017

Note: "FAIR" indicates few or no clouds below 12,000 feet
with no significant weather and/or obstructions to visibility.
 TC=TEMPERATURE CELSIUS

 * =Non NWS site. Station does not report precipitation (e.g. rain,
    snow, etc.), thunder, or fog.

DCZ001-MDZ009-015-VAZ040>042-051-053>054-232100-
WASHINGTON METRO

CITY           SKY/WX    TMP DP  RH WIND       PRES   REMARKS
WASHINGTON NAT MOSUNNY   47  10  22 S13       30.57F
DULLES         MOSUNNY   47   6  18 SE6       30.54F
ANDREWS AFB    SUNNY     44   1  16 W3        30.55F
FT BELVOIR     SUNNY     46   6  19 VRB7      30.56F
QUANTICO       MOSUNNY   45  17  32 S6        30.57F
COLLEGE PARK*  SUNNY     45   7  21 SW5       30.56F
LEESBURG*      SUNNY     50  14  23 W8        30.54F
MANASSAS*      SUNNY     48   7  18 VRB3      30.55F
GAITHERSBURG*  SUNNY     46   7  19 S6        30.58F

$$

MDZ006>007-011-014-232100-
BALTIMORE METRO

CITY           SKY/WX    TMP DP  RH WIND       PRES   REMARKS
BWI AIRPORT    MOSUNNY   46   5  18 W7        30.55F
MD SCIENCE CTR   N/A     46  15  28 MISG      30.57F
MARTIN STATE   MOSUNNY   43  21  42 SE13      30.58F
ANNAPOLIS      SUNNY     40  18  41 SE12      30.58F
FORT MEADE*    SUNNY     46   3  17 W10       30.57F

$$

MDZ012-015-019>023-232100-
MARYLAND EASTERN SHORE

CITY           SKY/WX    TMP DP  RH WIND       PRES   REMARKS
OCEAN CITY     SUNNY     36  18  48 VRB5      30.60F
SALISBURY      SUNNY     45   8  22 VRB5      30.57F
BAY BRIDGE AP* SUNNY     43  10  26 S8        30.58F
CAMBRIDGE*     SUNNY     41  -2  16 N13       30.58F
EASTON*        SUNNY     45 -11   9 W3        30.62F

$$

MDZ017>025-232100-
SOUTHERN MARYLAND

CITY           SKY/WX    TMP DP  RH WIND       PRES   REMARKS
PATUXENT RIVER MOSUNNY   39  18  42 SE9       30.59F
ST INIGOES     SUNNY     44  16  32 CALM      30.58F
LEONARDTOWN*   SUNNY     43  12  28 SE5       30.59F

$$

MDZ003>005-232100-
NORTH CENTRAL MARYLAND

CITY           SKY/WX    TMP DP  RH WIND       PRES   REMARKS
FREDERICK*     SUNNY     46  10  23 CALM      30.57F
HAGERSTOWN APT SUNNY     45   4  18 S6        30.51F
WESTMINSTER*   SUNNY     46   9  21 S3        30.52F

$$

MDZ501>502-232100-
WESTERN MARYLAND

CITY           SKY/WX    TMP DP  RH WIND       PRES   REMARKS
OAKLAND*       SUNNY     43  10  26 S8        30.37F
CUMBERLAND*    SUNNY     50   7  17 SW5       30.50F

$$

VAZ025>031-232100-
SHENANDOAH VALLEY

CITY           SKY/WX    TMP DP  RH WIND       PRES   REMARKS
WINCHESTER*    SUNNY     45  10  24 CALM      30.50F
FRONT ROYAL*   SUNNY     48  14  25 E6        30.49F
LURAY*         SUNNY     50  19  29 NW3       30.49F
NEW MARKET*    SUNNY     49  12  23 SW8       30.48F
STAUNTON*      SUNNY     48  14  25 S7        30.50F
WAYNESBORO*    SUNNY     48  15  26 SE6       30.48F

$$

WVZ021-048>050-054>055-232100-
EASTERN WEST VIRGINIA PANHANDLE

CITY           SKY/WX    TMP DP  RH WIND       PRES   REMARKS
MARTINSBURG    SUNNY     45   5  19 SE6       30.50F
PETERSBURG*    SUNNY     53  16  23 E6        30.44F

$$

VAZ036>039-050-232100-
CENTRAL FOOTHILLS

CITY           SKY/WX    TMP DP  RH WIND       PRES   REMARKS
CHARLOTTESVILL SUNNY     49   9  19 S6        30.52F
CULPEPER*      SUNNY     48   9  20 SW5       30.55F
ORANGE*        SUNNY     46  10  23 NW3       30.54F
GORDONSVILLE*  SUNNY     49  11  21 SW3       30.52F
WARRENTON*     SUNNY     51  -1  12 S5        30.54F

$$

VAZ055>057-232100-
NORTH AND CENTRAL PIEDMONT

CITY           SKY/WX    TMP DP  RH WIND       PRES   REMARKS
FREDERICKSBRG* SUNNY     49  14  24 E6        30.55F
STAFFORD*      SUNNY     47   8  20 SW3       30.59F

$$

NCZ024-NYZ072-PAZ021-071-VAZ022-071-232100-
OTHER REGIONAL OBSERVATIONS

CITY           SKY/WX    TMP DP  RH WIND       PRES   REMARKS
NEW YORK CITY  SUNNY     41  -2  16 NW8G16    30.54F
PHILADELPHIA   MOSUNNY   43   6  21 SW10      30.56F
PITTSBURGH     MOSUNNY   47   2  15 S6        30.41F
ROANOKE        MOSUNNY   52  14  22 E9        30.50F
RICHMOND       MOSUNNY   49  12  22 VRB5      30.56F
RALEIGH        MOSUNNY   55  16  21 VRB3      30.54F

$$

ANZ530>537-232100-
MARINE OBSERVATIONS

STATION/POSITION TIME  TEMP    WIND        PRES
                       AIR SEA DIR/SP/G
                 (UTC) (F)     (DEG/KT/KT) (MB)
THOMAS PT LIGHT  2000   37 44  150/  9/ 11   N/A
BALT KEY BRIDGE  1948   38     130/ 10/ 12 1035.3F
COVE POINT       1948   36     140/  5/  6 1036.3F
LEWISETTA        1948   36 47  100/  9/ 11 1035.7F
SOLOMONS ISLAND  1948   37 45   80/  9/ 10   N/A
PINEY POINT      1948          170/  8/  9   N/A

$$





USA.gov is the U.S. government's official web portal to all federal, state and local government web resources and services.